Regional Weather Roundup
Issued by NWS

Home | Current Version | Previous Version | Graphics & Text | Print | Product List | Glossary On
Versions: 1 2 3 4 5 6 7 8 9 10 11 12 13 14 15 16 17 18 19 20 21 22 23 24 25 26 27 28 29 30 31 32 33 34 35 36 37 38 39 40 41 42 43 44 45 46 47 48 49 50
657
ASUS45 KSLC 201910
RWRUT

UTAH REGIONAL WEATHER ROUNDUP
NATIONAL WEATHER SERVICE SALT LAKE CITY UT
1200 PM MST TUE FEB 20 2018

UTZ001>011-023>025-202000-

NORTHERN UTAH

CITY           SKY/WX    TMP DP  RH WIND       PRES   REMARKS
BRIGHAM CITY     N/A     21   7  55 NW6       30.10R WCI  13
DUGWAY         MOSUNNY   21  14  76 S5        30.11R WCI  14
HILL AFB       PTSUNNY   18   6  60 CALM      30.06S
LOGAN            N/A     20  10  65 N5        30.07S WCI  13
OGDEN          CLOUDY    20   8  60 S5        30.07R WCI  13
SALT LAKE CITY PTSUNNY   26  16  65 N7        30.09R WCI  18
TOOELE VALLEY  PTSUNNY   21  10  63 CALM      30.10S
WENDOVER         N/A     24   8  50 S9        30.09S WCI  14
HEBER CITY       N/A     21   9  58 E3        29.97S
WEST JORDAN    CLOUDY    20  12  69 NW6       30.08R WCI  13

$$

UTZ011>015-024>027-202000-

CENTRAL/NORTHEAST UTAH

CITY           SKY/WX    TMP DP  RH WIND       PRES   REMARKS
PROVO AIRPORT  PTSUNNY   24  13  62 VRB5      30.09R WCI  18
MOAB/CANYONLAN   N/A     31   1  28 W9        29.99S WCI  23
DELTA          CLOUDY    18  18 100 CALM      30.08R
PRICE            N/A     25  -5  26 W15G23    29.93S WCI  13
VERNAL           N/A     17   4  56 CALM      30.02S

$$

UTZ013>016-019>022-027-202000-

SOUTHERN UTAH

CITY           SKY/WX    TMP DP  RH WIND       PRES   REMARKS
BRYCE CANYON     N/A     18   1  47 VRB7      29.91R WCI   9
CEDAR CITY       N/A     22  13  68 NE6       29.99S WCI  14
MILFORD          N/A     19  16  88 SW6       30.04R WCI  11
ST GEORGE        N/A     38  15  39 VRB6      30.12S WCI  33
HANKSVILLE       N/A     34   0  23 E5        30.03S WCI  30
BLANDING         N/A     27   8  43 SW16      30.02S WCI  15

$$

REGIONAL REPORTS     COLORADO/ARIZONA

CITY           SKY/WX    TMP DP  RH WIND       PRES   REMARKS
CRAIG, CO      PTSUNNY   13   2  61 E5        29.96S WCI   5
GRAND JUNCTION   N/A     27  14  58 CALM      30.00R
RIFLE, CO        N/A     20  12  71 SE3       29.97S
MONTROSE, CO   CLOUDY    20  14  77 N8        29.99R WCI  10
CORTEZ, CO     CLOUDY    29  12  49 VRB5      29.97S WCI  24
COLORADO CITY    N/A     34   9  35 W12       30.06S WCI  25
PAGE, AZ         N/A     35  11  36 VRB5      30.02S WCI  31
GRAND CANYON   PTSUNNY   22   8  55 SW12      29.98R WCI  10
KINGMAN, AZ      N/A     41   8  25 N6        30.11S
FLAGSTAFF, AZ    N/A     25  -3  29 SW12      29.95S WCI  14

$$

REGIONAL REPORTS    NEVADA/IDAHO/WYOMING

CITY           SKY/WX    TMP DP  RH WIND       PRES   REMARKS
LAS VEGAS, NV    N/A     43   3  19 VRB3      30.15S
ELY, NY          N/A     19  -1  41 NW12      29.99R WCI   7
ELKO, NV         N/A     19   6  57 W9        30.06F WCI   8
POCATELLO, ID  PTSUNNY   14   5  67 SW18      30.08R WCI  -3
BURLEY, ID       N/A     15   3  59 W15G23    30.09S WCI   0
EVANSTON, WY   LGT SNOW   9   4  80 W15       29.88R WCI  -8
ROCK SPRINGS,  NOT AVBL

$$




USA.gov is the U.S. government's official web portal to all federal, state and local government web resources and services.